Overall — Joe Lloyd Memorial - Mini
Sunday 12 March 2023 · 62 finishers across every class · 3 laps for the winner
| Pos | No. | Rider | Class | Laps | Time | Behind | Int | Pace |
|---|---|---|---|---|---|---|---|---|
| 1 | #94A | MCCULLOUGH, RYLAND | SM 14-15 | 3 | 59:14 | — | 0:00 | 19:44 |
| 2 | #43B | SMITH, RYAN | SM 12-13 | 3 | 59:54 | +0:40 | 0:40 | 19:58 |
| 3 | #5A | WESTON, BODIE | SM 14-15 | 3 | 1:03:24 | +4:10 | 3:30 | 21:08 |
| 4 | #13A | AL-AWAM, TORREN | SM 14-15 | 3 | 1:05:04 | +5:50 | 1:40 | 21:41 |
| 5 | #38C | MAZZOLA, BRENNAN | MINI 12-13 | 3 | 1:06:11 | +6:57 | 1:07 | 22:03 |
| 6 | #42C | LACY, JACK | MINI 12-13 | 3 | 1:06:36 | +7:22 | 0:25 | 22:12 |
| 7 | #17A | POWERS, CARSON | SM 14-15 | 3 | 1:07:02 | +7:48 | 0:26 | 22:20 |
| 8 | #47B | HARRISON, EVAN | SM 12-13 | 3 | 1:08:50 | +9:36 | 1:48 | 22:56 |
| 9 | #25C | HERTZLER, NOAH | MINI 12-13 | 3 | 1:09:09 | +9:55 | 0:19 | 23:03 |
| 10 | #18B | EDMONDSON, TUCKER | SM 12-13 | 3 | 1:09:11 | +9:57 | 0:02 | 23:03 |
| 11 | #99C | CASH, CARSON | MINI 12-13 | 3 | 1:09:34 | +10:20 | 0:23 | 23:11 |
| 12 | #24A | CHRIMES, CHASE | SM 14-15 | 3 | 1:09:42 | +10:28 | 0:08 | 23:14 |
| 13 | #66A | LOWE, ALBERT | SM 14-15 | 3 | 1:09:42 | +10:28 | 0:00 | 23:14 |
| 14 | #21C | YOST, TRACE | MINI 12-13 | 3 | 1:09:44 | +10:30 | 0:02 | 23:14 |
| 15 | #30B | OLEARY, ASHTON | SM 12-13 | 3 | 1:09:46 | +10:32 | 0:02 | 23:15 |
| 16 | #42A | SCHLICKENMEYER, SEAN | SM 14-15 | 3 | 1:10:26 | +11:12 | 0:40 | 23:28 |
| 17 | #44B | GEARHART, CADENCE | SM 12-13 | 3 | 1:10:32 | +11:18 | 0:06 | 23:30 |
| 18 | #45B | GREER, CALEB | SM 12-13 | 3 | 1:10:46 | +11:32 | 0:14 | 23:35 |
| 19 | #42D | COLLINS, JAXON | MINI 9-11 | 3 | 1:10:58 | +11:44 | 0:12 | 23:39 |
| 20 | #23B | JOHNSON, BRADY | SM 12-13 | 3 | 1:11:36 | +12:22 | 0:38 | 23:52 |
| 21 | #16A | CLINEDINST,LAIRD | SM 14-15 | 3 | 1:11:41 | +12:27 | 0:05 | 23:53 |
| 22 | #29B | POFF, PEYTON | SM 12-13 | 3 | 1:13:12 | +13:58 | 1:31 | 24:24 |
| 23 | #88D | KEATING, JAMES | MINI 9-11 | 3 | 1:13:13 | +13:59 | 0:01 | 24:24 |
| 24 | #19C | CAWLEY, MASON | MINI 12-13 | 3 | 1:13:27 | +14:13 | 0:14 | 24:29 |
| 25 | #12K | BURKHOLDER, BRADLEY | MINI 9-11K | 3 | 1:14:53 | +15:39 | 1:26 | 24:57 |
| 26 | #5D | BAKKEN, DASH | MINI 9-11 | 3 | 1:15:52 | +16:38 | 0:59 | 25:17 |
| 27 | #21K | WIGGINS, MADDIX | MINI 9-11K | 3 | 1:15:53 | +16:39 | 0:01 | 25:17 |
| 28 | #22D | BAKER, COHEN | MINI 9-11 | 3 | 1:15:55 | +16:41 | 0:02 | 25:18 |
| 29 | #35B | AUSTIN, BRAYDEN | SM 12-13 | 3 | 1:16:50 | +17:36 | 0:55 | 25:36 |
| 30 | #13C | NEALY JR, IVAN | MINI 12-13 | 3 | 1:18:32 | +19:18 | 1:42 | 26:10 |
| 31 | #1K | DOMAN, HAYDEN | MINI 9-11K | 3 | 1:20:37 | +21:23 | 2:05 | 26:52 |
| 32 | #24D | OLEARY, NOLAN | MINI 9-11 | 3 | 1:21:19 | +22:05 | 0:42 | 27:06 |
| 33 | #96C | GREER, LOGAN | MINI 12-13 | 3 | 1:21:48 | +22:34 | 0:29 | 27:16 |
| 34 | #25K | TORRES, TRISTIN | MINI 9-11K | 3 | 1:21:49 | +22:35 | 0:01 | 27:16 |
| 35 | #23A | ARMOLD, CHRISTIAN | SM 14-15 | 3 | 1:22:13 | +22:59 | 0:24 | 27:24 |
| 36 | #20E | JACOBS, PEYTON | SM WOMEN | 3 | 1:22:30 | +23:16 | 0:17 | 27:30 |
| 37 | #17C | WOOD, PARKER | MINI 12-13 | 3 | 1:23:21 | +24:07 | 0:51 | 27:47 |
| 38 | #12E | NEALY, ALLISON | SM WOMEN | 3 | 1:23:42 | +24:28 | 0:21 | 27:54 |
| 39 | #12A | SHANNON, PARKER | SM 14-15 | 3 | 1:24:33 | +25:19 | 0:51 | 28:11 |
| 40 | #85D | BUCHANAN, TUCKER | MINI 9-11 | 3 | 1:27:18 | +28:04 | 2:45 | 29:06 |
| 41 | #22B | FOUTZ, KELLEN | SM 12-13 | 3 | 1:38:44 | +39:30 | 11:26 | 32:54 |
| 42 | #2E | HARDMAN, SAVANNAH | SM WOMEN | 2 | 58:04 | 1 lap | 0:00 | 29:02 |
| 43 | #8E | PANCAKE, DELILAH | SM WOMEN | 2 | 1:00:19 | 1 lap | 2:15 | 30:09 |
| 44 | #15K | RAMSEY, MASON | MINI 9-11K | 2 | 1:00:43 | 1 lap | 0:24 | 30:21 |
| 45 | #11K | ADAMSON. CASSEL | MINI 9-11K | 2 | 1:02:27 | 1 lap | 1:44 | 31:13 |
| 46 | #51D | RICE, DANE | MINI 9-11 | 2 | 1:02:53 | 1 lap | 0:26 | 31:26 |
| 47 | #10E | PANCAKE, LILLIAN | SM WOMEN | 2 | 1:08:02 | 1 lap | 5:09 | 34:01 |
| 48 | #16C | DODD, BENJAMIN | MINI 12-13 | 2 | 1:11:26 | 1 lap | 3:24 | 35:43 |
| 49 | #65D | LILLY, RYDER | MINI 9-11 | 2 | 1:13:25 | 1 lap | 1:59 | 36:42 |
| 50 | #26D | LILLY, WYATT | MINI 9-11 | 2 | 1:13:28 | 1 lap | 0:03 | 36:44 |
| 51 | #69K | LILLY, COLE | MINI 9-11K | 2 | 1:15:35 | 1 lap | 2:07 | 37:47 |
| 52 | #48E | LANDRUM, KINLEY | SM WOMEN | 2 | 1:16:45 | 1 lap | 1:10 | 38:22 |
| 53 | #51K | RICE, HOLTON | MINI 9-11K | 2 | 1:18:08 | 1 lap | 1:23 | 39:04 |
| 54 | #77K | LAMB, BRYSON | MINI 9-11K | 2 | 1:20:07 | 1 lap | 1:59 | 40:03 |
| 55 | #15D | JOHANSEN, BLAKE | MINI 9-11 | 2 | 1:21:21 | 1 lap | 1:14 | 40:40 |
| 56 | #9G | NEALY, KALISSA | TRL WOMEN | 2 | 1:23:53 | 1 lap | 2:32 | 41:56 |
| 57 | #92C | THOMAS, COOPER | MINI 12-13 | 2 | 1:23:58 | 1 lap | 0:05 | 41:59 |
| 58 | #58E | LOHR, CAROLINE | SM WOMEN | 2 | 1:28:07 | 1 lap | 4:09 | 44:03 |
| 59 | #52G | GRIFFIN, STACI | TRL WOMEN | 2 | 1:30:59 | 1 lap | 2:52 | 45:29 |
| 60 | #50K | JOHNSON, LUCAS | MINI 9-11K | 1 | 27:41 | 2 laps | 0:00 | 27:41 |
| 61 | #67A | BONANNO, ADIN | SM 14-15 | 1 | 28:54 | 2 laps | 1:13 | 28:54 |
| 62 | #7C | WOODS, JOHNNY | MINI 12-13 | 1 | 40:06 | 2 laps | 11:12 | 40:06 |
Ranked the way the series ranks: most laps first, then least time. Behind is the deficit to the winner and is only shown where the lap count matches, because elapsed time says nothing across different lap counts — a rider a lap down shows the laps instead. Int is the gap to the rider immediately ahead.